SIA114 WSSS-WMKK

Flight info

Callsign SIA114
Flight time 0h 43m
Altitude 26000
Route MASBO3A MASBO A457 GUPTA GUPTA3J
Aircraft B738/M-SDE2E3FGHIRWXY/LB1

Departure

Time 2026-05-05 04:36
Airport Singapore Changi Airport (WSSS)

Arrival

Time 2026-05-05 05:20
Airport Kuala Lumpur International Airport (WMKK)
Time Latitude Longitude Altitude Speed Heading
2026-05-05 03:58 1.35093 103.99055 23 ft 0 kts 83°
2026-05-05 04:25 1.35092 103.99045 26 ft 2 kts 83°
2026-05-05 04:25 1.35089 103.99029 24 ft 2 kts 82°
2026-05-05 04:25 1.35087 103.99013 27 ft 2 kts 81°
2026-05-05 04:26 1.35085 103.98997 27 ft 2 kts 83°
2026-05-05 04:26 1.35084 103.98980 28 ft 2 kts 99°
2026-05-05 04:26 1.35091 103.98966 24 ft 2 kts 154°
2026-05-05 04:26 1.35107 103.98962 27 ft 2 kts 174°
2026-05-05 04:27 1.35111 103.98962 27 ft 0 kts 173°
2026-05-05 04:28 1.35108 103.98962 27 ft 1 kts 173°
2026-05-05 04:28 1.35084 103.98965 27 ft 5 kts 173°
2026-05-05 04:29 1.35042 103.98970 24 ft 6 kts 173°
2026-05-05 04:29 1.35000 103.98976 23 ft 6 kts 173°
2026-05-05 04:29 1.34952 103.98982 23 ft 9 kts 173°
2026-05-05 04:29 1.34893 103.99003 23 ft 10 kts 129°
2026-05-05 04:30 1.34865 103.99063 26 ft 9 kts 113°
2026-05-05 04:30 1.34857 103.99124 23 ft 9 kts 64°
2026-05-05 04:30 1.34909 103.99156 25 ft 9 kts 22°
2026-05-05 04:30 1.34966 103.99179 24 ft 9 kts 22°
2026-05-05 04:31 1.35040 103.99210 26 ft 14 kts 23°
2026-05-05 04:31 1.35145 103.99255 23 ft 18 kts 23°
2026-05-05 04:31 1.35258 103.99303 23 ft 17 kts 23°
2026-05-05 04:31 1.35366 103.99349 23 ft 17 kts 22°
2026-05-05 04:32 1.35471 103.99392 25 ft 16 kts 22°
2026-05-05 04:32 1.35571 103.99435 26 ft 15 kts 23°
2026-05-05 04:32 1.35668 103.99476 26 ft 15 kts 23°
2026-05-05 04:32 1.35760 103.99515 26 ft 14 kts 23°
2026-05-05 04:33 1.35849 103.99552 27 ft 13 kts 23°
2026-05-05 04:33 1.35932 103.99587 24 ft 13 kts 22°
2026-05-05 04:33 1.36014 103.99622 23 ft 13 kts 22°
2026-05-05 04:33 1.36094 103.99655 23 ft 12 kts 22°
2026-05-05 04:34 1.36172 103.99688 24 ft 12 kts 22°
2026-05-05 04:34 1.36237 103.99719 23 ft 9 kts 42°
2026-05-05 04:34 1.36237 103.99777 23 ft 9 kts 113°
2026-05-05 04:34 1.36212 103.99832 25 ft 9 kts 113°
2026-05-05 04:35 1.36185 103.99880 27 ft 4 kts 145°
2026-05-05 04:35 1.36156 103.99875 24 ft 5 kts 203°
2026-05-05 04:35 1.35963 103.99794 24 ft 67 kts 203°
2026-05-05 04:35 1.35313 103.99517 23 ft 134 kts 203°
2026-05-05 04:36 1.34317 103.99092 240 ft 168 kts 204°
2026-05-05 04:36 1.33256 103.98603 1031 ft 164 kts 203°
2026-05-05 04:36 1.32252 103.98136 1909 ft 156 kts 206°
2026-05-05 04:36 1.31206 103.97684 2325 ft 178 kts 202°
2026-05-05 04:37 1.29979 103.97197 2598 ft 206 kts 202°
2026-05-05 04:37 1.28574 103.96628 2784 ft 229 kts 202°
2026-05-05 04:37 1.27045 103.96003 3087 ft 244 kts 203°
2026-05-05 04:37 1.25429 103.95412 3632 ft 251 kts 190°
2026-05-05 04:38 1.23705 103.95527 4415 ft 251 kts 160°
2026-05-05 04:38 1.22278 103.96507 5138 ft 254 kts 128°
2026-05-05 04:38 1.21424 103.98049 5853 ft 256 kts 114°
2026-05-05 04:38 1.20723 103.99703 6568 ft 260 kts 112°
2026-05-05 04:39 1.20035 104.01353 7268 ft 262 kts 112°
2026-05-05 04:39 1.19603 104.03123 7977 ft 266 kts 89°
2026-05-05 04:39 1.20042 104.04906 8685 ft 270 kts 62°
2026-05-05 04:39 1.21351 104.06316 9055 ft 289 kts 30°
2026-05-05 04:40 1.23198 104.07166 9711 ft 296 kts 21°
2026-05-05 04:40 1.25222 104.07567 10310 ft 305 kts 358°
2026-05-05 04:40 1.27355 104.07105 10621 ft 323 kts 342°
2026-05-05 04:40 1.29484 104.06373 11181 ft 331 kts 341°
2026-05-05 04:41 1.31666 104.05600 11903 ft 334 kts 341°
2026-05-05 04:41 1.33869 104.04828 12652 ft 337 kts 341°
2026-05-05 04:41 1.36104 104.04061 13375 ft 342 kts 342°
2026-05-05 04:41 1.38371 104.03294 14063 ft 346 kts 342°
2026-05-05 04:42 1.40668 104.02520 14775 ft 350 kts 342°
2026-05-05 04:42 1.42966 104.01755 15474 ft 354 kts 343°
2026-05-05 04:42 1.45319 104.00991 16166 ft 358 kts 343°
2026-05-05 04:42 1.47700 104.00225 16832 ft 362 kts 343°
2026-05-05 04:43 1.50112 103.99448 17483 ft 366 kts 343°
2026-05-05 04:43 1.52549 103.98663 18131 ft 370 kts 344°
2026-05-05 04:43 1.55015 103.97866 18688 ft 374 kts 344°
2026-05-05 04:43 1.57501 103.97062 19255 ft 377 kts 343°
2026-05-05 04:44 1.60008 103.96250 19817 ft 380 kts 343°
2026-05-05 04:44 1.62538 103.95430 20378 ft 384 kts 343°
2026-05-05 04:44 1.65052 103.94616 20915 ft 387 kts 343°
2026-05-05 04:44 1.67627 103.93782 21462 ft 390 kts 343°
2026-05-05 04:45 1.70220 103.92942 21999 ft 394 kts 343°
2026-05-05 04:45 1.72743 103.91859 22542 ft 398 kts 328°
2026-05-05 04:45 1.74774 103.89991 23230 ft 399 kts 307°
2026-05-05 04:45 1.76108 103.87577 23877 ft 398 kts 289°
2026-05-05 04:46 1.76699 103.84882 24460 ft 396 kts 279°
2026-05-05 04:46 1.77077 103.82193 24999 ft 397 kts 277°
2026-05-05 04:46 1.77432 103.79454 25549 ft 397 kts 277°
2026-05-05 04:46 1.77801 103.76723 25874 ft 397 kts 278°
2026-05-05 04:47 1.78194 103.74000 25867 ft 394 kts 278°
2026-05-05 04:47 1.78600 103.71288 25884 ft 395 kts 278°
2026-05-05 04:47 1.79010 103.68568 25898 ft 396 kts 278°
2026-05-05 04:47 1.79410 103.65839 25893 ft 397 kts 278°
2026-05-05 04:48 1.79798 103.63144 25894 ft 397 kts 278°
2026-05-05 04:48 1.80190 103.60409 25892 ft 398 kts 278°
2026-05-05 04:48 1.80582 103.57674 25896 ft 398 kts 278°
2026-05-05 04:48 1.80975 103.54937 25888 ft 398 kts 278°
2026-05-05 04:49 1.81368 103.52199 25889 ft 398 kts 278°
2026-05-05 04:49 1.81761 103.49467 25892 ft 397 kts 278°
2026-05-05 04:49 1.82155 103.46736 25895 ft 397 kts 278°
2026-05-05 04:49 1.82548 103.44008 25887 ft 396 kts 278°
2026-05-05 04:50 1.82935 103.41318 25888 ft 396 kts 278°
2026-05-05 04:50 1.83326 103.38599 25895 ft 396 kts 278°
2026-05-05 04:50 1.83718 103.35878 25892 ft 395 kts 278°
2026-05-05 04:50 1.84109 103.33161 25901 ft 395 kts 278°
2026-05-05 04:51 1.84501 103.30441 25893 ft 395 kts 278°
2026-05-05 04:51 1.85109 103.27770 25876 ft 395 kts 293°
2026-05-05 04:51 1.86265 103.25290 25905 ft 394 kts 297°
2026-05-05 04:51 1.87499 103.22845 25900 ft 394 kts 297°
2026-05-05 04:52 1.88731 103.20438 25901 ft 395 kts 297°
2026-05-05 04:52 1.89973 103.17989 25895 ft 395 kts 297°
2026-05-05 04:52 1.91206 103.15533 25892 ft 395 kts 297°
2026-05-05 04:52 1.92427 103.13074 25895 ft 396 kts 296°
2026-05-05 04:53 1.93645 103.10605 25892 ft 396 kts 296°
2026-05-05 04:53 1.94860 103.08135 25890 ft 396 kts 296°
2026-05-05 04:53 1.96074 103.05665 25895 ft 396 kts 296°
2026-05-05 04:53 1.97273 103.03224 25898 ft 396 kts 296°
2026-05-05 04:54 1.98486 103.00754 25899 ft 396 kts 296°
2026-05-05 04:54 1.99702 102.98278 25892 ft 396 kts 296°
2026-05-05 04:54 2.00915 102.95808 25889 ft 396 kts 296°
2026-05-05 04:54 2.02131 102.93332 25889 ft 396 kts 296°
2026-05-05 04:55 2.03346 102.90860 25891 ft 396 kts 296°
2026-05-05 04:55 2.04562 102.88386 25893 ft 396 kts 296°
2026-05-05 04:55 2.05762 102.85929 25875 ft 388 kts 296°
2026-05-05 04:55 2.06923 102.83538 25875 ft 375 kts 296°
2026-05-05 04:56 2.08024 102.81264 25871 ft 362 kts 296°
2026-05-05 04:56 2.09101 102.79043 25876 ft 349 kts 296°
2026-05-05 04:56 2.10139 102.76900 25869 ft 336 kts 296°
2026-05-05 04:56 2.11142 102.74834 25874 ft 324 kts 296°
2026-05-05 04:57 2.12106 102.72846 25870 ft 313 kts 296°
2026-05-05 04:57 2.13043 102.70914 25882 ft 308 kts 296°
2026-05-05 04:57 2.13991 102.68962 25908 ft 318 kts 296°
2026-05-05 04:57 2.14945 102.66997 25915 ft 327 kts 296°
2026-05-05 04:58 2.15926 102.64983 25904 ft 329 kts 298°
2026-05-05 04:58 2.17234 102.63135 25891 ft 324 kts 315°
2026-05-05 04:58 2.18822 102.61549 25893 ft 322 kts 317°
2026-05-05 04:58 2.20433 102.59997 25889 ft 321 kts 317°
2026-05-05 04:59 2.22038 102.58450 25885 ft 320 kts 317°
2026-05-05 04:59 2.23632 102.56901 25891 ft 319 kts 316°
2026-05-05 04:59 2.25215 102.55350 25885 ft 319 kts 316°
2026-05-05 04:59 2.26793 102.53796 25898 ft 318 kts 316°
2026-05-05 05:00 2.28367 102.52240 25898 ft 318 kts 316°
2026-05-05 05:00 2.29918 102.50704 25897 ft 318 kts 316°
2026-05-05 05:00 2.31494 102.49142 25903 ft 319 kts 316°
2026-05-05 05:00 2.33070 102.47579 25897 ft 320 kts 316°
2026-05-05 05:01 2.34652 102.46010 25899 ft 321 kts 316°
2026-05-05 05:01 2.36238 102.44438 25901 ft 322 kts 316°
2026-05-05 05:01 2.37763 102.42807 25840 ft 320 kts 304°
2026-05-05 05:01 2.38634 102.40779 25561 ft 319 kts 278°
2026-05-05 05:02 2.38649 102.38565 24991 ft 325 kts 256°
2026-05-05 05:02 2.37973 102.36361 24076 ft 347 kts 249°
2026-05-05 05:02 2.36816 102.34230 23499 ft 352 kts 226°
2026-05-05 05:02 2.34940 102.32720 23182 ft 343 kts 206°
2026-05-05 05:03 2.32735 102.31913 22898 ft 335 kts 190°
2026-05-05 05:03 2.30466 102.31447 22584 ft 332 kts 188°
2026-05-05 05:03 2.28201 102.31011 22214 ft 331 kts 188°
2026-05-05 05:03 2.26014 102.30325 21807 ft 331 kts 206°
2026-05-05 05:04 2.24058 102.29122 21324 ft 329 kts 211°
2026-05-05 05:04 2.22157 102.27900 20791 ft 329 kts 210°
2026-05-05 05:04 2.20230 102.26682 20295 ft 327 kts 210°
2026-05-05 05:04 2.18354 102.25406 19823 ft 326 kts 221°
2026-05-05 05:05 2.16877 102.23687 19362 ft 325 kts 231°
2026-05-05 05:05 2.15513 102.21891 18919 ft 323 kts 231°
2026-05-05 05:05 2.14148 102.20120 18475 ft 321 kts 231°
2026-05-05 05:05 2.12781 102.18359 18013 ft 319 kts 233°
2026-05-05 05:06 2.11804 102.16380 17487 ft 318 kts 251°
2026-05-05 05:06 2.11159 102.14309 17052 ft 315 kts 252°
2026-05-05 05:06 2.10505 102.12228 16584 ft 313 kts 252°
2026-05-05 05:06 2.09840 102.10167 16122 ft 310 kts 251°
2026-05-05 05:07 2.09293 102.08097 15657 ft 308 kts 265°
2026-05-05 05:07 2.09306 102.05966 15227 ft 305 kts 272°
2026-05-05 05:07 2.09445 102.03864 14790 ft 302 kts 281°
2026-05-05 05:07 2.10226 102.01946 14325 ft 299 kts 307°
2026-05-05 05:08 2.11712 102.00540 13907 ft 293 kts 331°
2026-05-05 05:08 2.13572 101.99858 13471 ft 288 kts 353°
2026-05-05 05:08 2.15550 101.99884 12992 ft 284 kts 11°
2026-05-05 05:08 2.17478 102.00259 12530 ft 282 kts 13°
2026-05-05 05:09 2.19387 102.00679 12087 ft 281 kts 13°
2026-05-05 05:09 2.21301 102.01102 11791 ft 280 kts 13°
2026-05-05 05:09 2.23193 102.01513 11570 ft 277 kts 13°
2026-05-05 05:09 2.25074 102.01915 11280 ft 276 kts 13°
2026-05-05 05:10 2.26924 102.02306 11009 ft 275 kts 12°
2026-05-05 05:10 2.28798 102.02698 10739 ft 274 kts 12°
2026-05-05 05:10 2.30659 102.03087 10464 ft 273 kts 12°
2026-05-05 05:10 2.32514 102.03473 10211 ft 271 kts 12°
2026-05-05 05:11 2.34343 102.03849 10084 ft 264 kts
2026-05-05 05:11 2.36136 102.03743 9991 ft 256 kts 341°
2026-05-05 05:11 2.37627 102.02837 9864 ft 250 kts 315°
2026-05-05 05:11 2.38605 102.01448 9657 ft 248 kts 295°
2026-05-05 05:12 2.39231 101.99838 9247 ft 254 kts 289°
2026-05-05 05:12 2.39811 101.98134 8619 ft 262 kts 289°
2026-05-05 05:12 2.40406 101.96391 8078 ft 266 kts 289°
2026-05-05 05:12 2.41117 101.94686 7542 ft 268 kts 304°
2026-05-05 05:13 2.42323 101.93267 7041 ft 268 kts 313°
2026-05-05 05:13 2.43587 101.91892 6533 ft 269 kts 312°
2026-05-05 05:13 2.44847 101.90501 6012 ft 270 kts 312°
2026-05-05 05:13 2.46087 101.89118 5483 ft 271 kts 311°
2026-05-05 05:14 2.47377 101.87752 4954 ft 270 kts 320°
2026-05-05 05:14 2.48914 101.86668 4427 ft 270 kts 328°
2026-05-05 05:14 2.50509 101.85674 3900 ft 271 kts 327°
2026-05-05 05:14 2.52078 101.84681 3625 ft 261 kts 328°
2026-05-05 05:15 2.53580 101.83762 3506 ft 245 kts 327°
2026-05-05 05:15 2.54964 101.82869 3461 ft 228 kts 326°
2026-05-05 05:15 2.56260 101.82000 3382 ft 225 kts 326°
2026-05-05 05:15 2.57576 101.81109 3112 ft 230 kts 325°
2026-05-05 05:16 2.58904 101.80211 2828 ft 231 kts 326°
2026-05-05 05:16 2.60222 101.79321 2546 ft 231 kts 325°
2026-05-05 05:16 2.61525 101.78441 2252 ft 221 kts 325°
2026-05-05 05:16 2.62765 101.77604 1972 ft 209 kts 325°
2026-05-05 05:17 2.63941 101.76810 1711 ft 200 kts 325°
2026-05-05 05:17 2.65067 101.76050 1458 ft 190 kts 325°
2026-05-05 05:17 2.66116 101.75341 1194 ft 174 kts 324°
2026-05-05 05:17 2.67061 101.74703 995 ft 160 kts 324°
2026-05-05 05:18 2.67959 101.74092 872 ft 157 kts 324°
2026-05-05 05:18 2.68879 101.73476 657 ft 157 kts 325°
2026-05-05 05:18 2.69764 101.72877 456 ft 150 kts 325°
2026-05-05 05:18 2.70609 101.72304 315 ft 145 kts 325°
2026-05-05 05:19 2.71446 101.71731 100 ft 145 kts 325°
2026-05-05 05:19 2.72236 101.71193 54 ft 124 kts 326°
2026-05-05 05:19 2.72830 101.70797 51 ft 81 kts 326°
2026-05-05 05:19 2.73209 101.70544 56 ft 54 kts 326°
2026-05-05 05:20 2.73488 101.70462 54 ft 36 kts 355°
2026-05-05 05:20 2.73714 101.70436 53 ft 23 kts 333°
2026-05-05 05:20 2.73844 101.70349 56 ft 22 kts 326°
2026-05-05 05:20 2.73971 101.70264 53 ft 22 kts 327°
2026-05-05 05:21 2.74091 101.70184 57 ft 17 kts 326°
2026-05-05 05:21 2.74188 101.70129 58 ft 16 kts 310°
2026-05-05 05:21 2.74274 101.70061 57 ft 16 kts 327°
2026-05-05 05:21 2.74357 101.70009 52 ft 13 kts 335°
2026-05-05 05:22 2.74429 101.70043 58 ft 12 kts 56°
2026-05-05 05:22 2.74475 101.70114 61 ft 12 kts 57°
2026-05-05 05:22 2.74520 101.70184 59 ft 12 kts 57°
2026-05-05 05:22 2.74570 101.70259 61 ft 15 kts 56°
2026-05-05 05:23 2.74633 101.70352 66 ft 16 kts 56°
2026-05-05 05:23 2.74695 101.70444 63 ft 16 kts 56°
2026-05-05 05:23 2.74754 101.70531 61 ft 15 kts 56°
2026-05-05 05:23 2.74811 101.70615 67 ft 14 kts 56°
2026-05-05 05:24 2.74865 101.70696 63 ft 14 kts 56°
2026-05-05 05:24 2.74917 101.70774 72 ft 13 kts 56°
2026-05-05 05:24 2.74969 101.70847 71 ft 13 kts 52°
2026-05-05 05:24 2.75020 101.70918 72 ft 12 kts 56°
2026-05-05 05:25 2.75058 101.70992 68 ft 12 kts 96°
2026-05-05 05:25 2.74995 101.71043 66 ft 12 kts 147°
2026-05-05 05:25 2.74930 101.71087 72 ft 9 kts 141°
2026-05-05 05:25 2.74938 101.71133 72 ft 5 kts 54°
2026-05-05 05:26 2.74949 101.71149 64 ft 1 kts 56°
2026-05-05 05:26 2.74955 101.71158 67 ft 2 kts 56°
2026-05-05 05:26 2.74957 101.71161 72 ft 0 kts 56°